Location: ???????
(55.4362°N, 38.1183°E)
Time: 03:40:40
(UTC+00:00)

Cosmos 2369 Rocket - Pass Details

Date: 17 June 2021
Orbit: 827 x 854 km, 71.0° (Epoch: 26 July)

Event Time Altitude Azimuth Distance (km) Brightness Sun altitude
Rises 23:15:33 0° 322° (NW) 3,436 5.8 -7.9°
Reaches altitude 10° 23:18:16 10° 313° (NW) 2,496 4.9 -7.8°
Maximum altitude 23:23:11 30° 254° (WSW) 1,478 3.1 -7.5°
Drops below altitude 10° 23:28:04 10° 194° (SSW) 2,478 4.0 -7.1°
Enters shadow 23:28:45 - 191° (S) 2,704 4.2 -7.1°
